Regional Weather Roundup
Issued by NWS

Home | Current Version | Previous Version | Graphics & Text | Print | Product List | Glossary On
Versions: 1 2 3 4 5 6 7 8 9 10 11 12 13 14 15 16 17 18 19 20 21 22 23 24 25 26 27 28 29 30 31 32 33 34 35 36 37 38 39 40 41 42 43 44 45 46 47 48 49 50
000
ASUS43 KLOT 290206
RWRIL

ILLINOIS REGIONAL WEATHER ROUNDUP
NATIONAL WEATHER SERVICE CHICAGO/ROMEOVILLE IL
800 PM CST FRI NOV 28 2014

NOTE: "FAIR" INDICATES FEW OR NO CLOUDS BELOW 12,000 FEET WITH NO
SIGNIFICANT WEATHER AND/OR OBSTRUCTIONS TO VISIBILITY.

* THESE STATIONS ARE NOT UNDER NWS QUALITY CONTROL. THEY ALSO MAY NOT
  REPORT WEATHER SUCH AS PRECIPITATION OR FOG.

ILZ001-002-007-009-015-016-024-290300-
NORTHWEST ILLINOIS

CITY           SKY/WX    TMP DP  RH WIND       PRES   REMARKS
MOLINE         MOCLDY    34  29  82 SE8       29.83F WCI  27
STERLING*      PTCLDY    32  28  86 S3        29.89R
SAVANNA*       MOCLDY    33  29  88 SE7       29.87F WCI  26
$$

ILZ003-004-008-010-011-017-018-290300-
NORTH CENTRAL ILLINOIS

CITY           SKY/WX    TMP DP  RH WIND       PRES   REMARKS
ROCKFORD       CLOUDY    34  29  82 S9        29.92F WCI  27
FREEPORT*      CLOUDY    32  29  89 SE6       29.90F WCI  26
ROCHELLE*      MOCLDY    32  30  92 SE12      29.91S WCI  23
DE KALB*       CLOUDY    31  29  90 SE10      29.92R WCI  23
PERU*          PTCLDY    34  31  89 S14       29.90F WCI  25
$$

ILZ005-006-012>014-019>023-290300-
NORTHEAST ILLINOIS

CITY           SKY/WX    TMP DP  RH WIND       PRES   REMARKS
CHICAGO-OHARE  CLOUDY    33  28  81 S10       29.93F WCI  25
CHICAGO-MIDWAY CLOUDY    35  27  72 S12       29.94F WCI  27
AURORA         CLOUDY    35  29  78 S13       29.93S WCI  26
LANSING*       CLOUDY    33  26  78 S14       29.96F WCI  23
JOLIET*        MOCLDY    34  30  86 S12       29.94S WCI  25
WAUKEGAN       CLOUDY    32  26  78 S7        29.93S WCI  26
DUPAGE AIRPORT CLOUDY    34  29  82 S14       29.92F WCI  25
KANKAKEE*      PTCLDY    33  29  88 SE12      29.96F WCI  24
WHEELING       CLOUDY    33  27  78 S10       29.95S WCI  25
MORRIS*        MOCLDY    34  32  93 S9        29.93R WCI  26
ROMEOVILLE*    CLOUDY    34  30  86 S14       29.94S WCI  24
NORTHERLY ISL    N/A     33  26  76 S13         N/A  WCI  24
$$

LMZ740>746-290300-
SOUTHERN LAKE MICHIGAN

STATION/POSITION SKY/WX   TEMP    WIND        PRES    VSBY  WAVE
                          AIR SEA DIR/SP/G                  HT/PER
                          (F)     (DEG/KT/KT) (MB)    (MI)  (FT/S)
SOUTHERN BUOY              36 42  170/ 23/ 27 1014.8F         6/ 6
WAUKEGAN HARBOR            33     180/ 11/ 14   N/A
HARRISON CRIB              33     170/ 22/ 27   N/A
BURNHAM HARBOR             33     170/  5/ 14   N/A
CALUMET HARBOR             33     170/ 11/ 14 1012.8F
MICHIGAN CITY              31     140/ 18/ 24   N/A
$$

ILZ025>027-034>036-040-047-049-050-058-095>099-290300-
WEST-CENTRAL ILLINOIS

CITY           SKY/WX    TMP DP  RH WIND       PRES   REMARKS
QUINCY         CLEAR     37  31  78 SE8       29.82F WCI  31
GALESBURG*     PTCLDY    35  32  89 SE9       29.84F WCI  27
MACOMB*        PTCLDY    35  32  90 SE10      29.86F WCI  27
JACKSONVILLE*  CLEAR     41  34  76 SE10      29.88F
PITTSFIELD*    CLEAR     40  34  78 SE8       29.87F
$$

ILZ028>032-037-038-041>044-048-051>054-059>061-290300-
CENTRAL ILLINOIS

CITY           SKY/WX    TMP DP  RH WIND       PRES   REMARKS
PONTIAC        MOCLDY    35  32  88 S14       29.94F WCI  26
BLOOMINGTON    PTCLDY    34  32  92 S15       29.92F WCI  24
DECATUR        CLEAR     37  30  75 S16       29.95F WCI  28
PEORIA         PTCLDY    39  30  70 S16G24    29.89F WCI  30
LACON*         PTCLDY    35  30  82 S12       29.89F WCI  27
LINCOLN*       CLEAR     36  32  85 S10       29.92F WCI  28
SPRINGFIELD    CLEAR     39  32  76 S18       29.91F WCI  30
TAYLORVILLE    CLEAR     36  32  87 S15       29.94F WCI  26
$$

ILZ033-039-045-046-055>057-062-063-290300-
EAST-CENTRAL ILLINOIS

CITY           SKY/WX    TMP DP  RH WIND       PRES   REMARKS
CHAMPAIGN      PTCLDY    35  30  82 S16       29.97F WCI  25
DANVILLE*      MOCLDY    35  28  77 S13       29.97F WCI  26
RANTOUL*       PTCLDY    35  32  88 S13       29.97S WCI  26
MATTOON        PTCLDY    35  29  78 S12       29.98F WCI  27
PARIS*         PTCLDY    35  30  80 S13       30.02F WCI  27
$$

ILZ079-100>102-290300-
SOUTHWEST ILLINOIS

CITY           SKY/WX    TMP DP  RH WIND       PRES   REMARKS
BELLEVILLE     PTCLDY    41  35  80 S10       29.95F
CAHOKIA*       PTCLDY    42  33  70 S6        29.94F
SPARTA*        MOCLDY    43  32  66 S16       29.98F
$$

ILZ064>066-069>071-074>076-080>082-084>086-088>090-092>094-290300-
SOUTH-CENTRAL ILLINOIS

CITY           SKY/WX    TMP DP  RH WIND       PRES   REMARKS
CARBONDALE     PTCLDY    41  27  57 S9        30.01F
CAIRO*         PTCLDY    43  29  58 S6        30.05S
EFFINGHAM*     MOCLDY    38  28  66 SE9       30.00F WCI  31
MARION         PTCLDY    45  28  53 S15       30.02F
MT. VERNON     MOCLDY    39  28  65 S6        30.01F WCI  35
CENTRALIA*     CLOUDY    39  29  67 S9        29.99F WCI  33
SALEM*           N/A     41  31  65 S6        30.00F
METROPOLIS*    PTCLDY    43  28  56 S5          N/A
$$

ILZ067-068-072-073-078-083-087-091-290300-
SOUTHEAST ILLINOIS

CITY           SKY/WX    TMP DP  RH WIND       PRES   REMARKS
LAWRENCEVILLE  PTCLDY    37  29  72 S9        30.06S WCI  30
FLORA*         PTCLDY    36  31  80 S9        30.02F WCI  29
FAIRFIELD*     PTCLDY    39  30  70 S7        30.02F WCI  34
HARRISBURG*    MOCLDY    40  29  65 S7        30.05F
ROBINSON*      PTCLDY    35  28  75 S8        30.06S WCI  29
CARMI*         PTCLDY    36  32  87 SE9       30.04F WCI  29
$$

ABBREVIATIONS USED IN REMARKS
   TC - TEMPERATURE IN CELSIUS
  WCI - WIND CHILL INDEX
   HX - HEAT INDEX
  VSB - VISIBILITY
$$




USA.gov is the U.S. government's official web portal to all federal, state and local government web resources and services.